Other Public Products
Issued by NWS Grand Forks, ND

Home | Current Version | Previous Version | Graphics & Text | Print | Product List | Glossary On
Versions: 1 2 3 4 5 6 7 8 9 10 11 12 13 14 15 16 17 18 19 20 21 22 23 24 25 26 27 28 29 30 31 32 33 34 35 36 37 38 39 40 41 42 43 44 45 46 47 48 49 50
000
FPUS83 KFGF 231931
OPUFGF
PRAIRIE TO PINES WEATHER ROUNDUP
NATIONAL WEATHER SERVICE EASTERN NORTH DAKOTA/GRAND FORKS ND
200 PM CDT SUN JUL 23 2017

 **SATELLITE DATA USED TO AUGMENT SKY COVER AT AUTOMATED STATIONS**
 *****  WEATHER ACROSS EASTERN NORTH DAKOTA  *****

CITY           SKY/WX    TMP DP  RH WIND       PRES   REMARKS
GRAND FORKS    PTSUNNY   76  62  62 VRB5      30.00F
GRAND FORKS AF CLOUDY    73  61  64 CALM      30.02F
GRAND CITY NWS NOT AVBL
BUXTON           N/A     74  65  74 NE2         N/A
DEVILS LAKE    FAIR      73  56  54 VRB3      30.05F
FARGO          CLOUDY    71  60  68 NW8       30.02S
WAHPETON ARPT  CLOUDY    70  57  64 N7        30.02F
$$

 *****  WEATHER ACROSS CENTRAL AND WESTERN NORTH DAKOTA  *****

CITY           SKY/WX    TMP DP  RH WIND       PRES   REMARKS
JAMESTOWN      FAIR      78  59  51 N9        30.03F
BISMARCK       FAIR      81  54  39 W6        30.04F
MINOT          FAIR      82  52  35 E9        30.01F
MINOT AFB      FAIR      78  54  42 S7        30.00F
GARRISON         N/A     79  56  45 SW8       30.03F
WILLISTON      FAIR      87  51  28 VRB7      29.99F
DICKINSON      FAIR      84  49  29 S6        30.03F
HETTINGER      FAIR      86  47  25 S6        30.06F
$$

 *****  OTHER OBSERVATIONS NORTHEAST NORTH DAKOTA  *****

CITY           SKY/WX    TMP DP  RH WIND       PRES   REMARKS
WALHALLA       NOT AVBL
LANGDON        FAIR      77  59  53 CALM      30.04F
CAVALIER       FAIR      77  63  61 CALM      30.01S
GRAFTON        FAIR      73  61  64 W5        30.03S
CANDO          NOT AVBL
FORT TOTTEN      N/A     76  57  50 N5        29.95S
ROLLA            N/A     73  54  49 CALM      30.05F
RUGBY          NOT AVBL
 ***** THE ABOVE OBSERVATIONS ARE NON NWS ARE NOT QUALITY
        CONTROLLED AND MAY MIS-REPORT RAIN FOR SNOW...
$$

 *****  OTHER OBSERVATIONS SOUTHEAST NORTH DAKOTA *****

CITY           SKY/WX    TMP DP  RH WIND       PRES   REMARKS
COOPERSTOWN    MOCLDY    75  61  60 VRB6      30.03F
VALLEY CITY    FAIR      77  61  57 NW10      30.04F
OAKES          NOT AVBL
GWINNER        MOCLDY    73  61  64 CALM      30.03S
SHEYENNE NWR     N/A     74  61  63 N6        29.95S
BUFFALO          N/A     74  56  54 N8          N/A
WYNDMERE       NOT AVBL
 ***** THE ABOVE OBSERVATIONS ARE NON NWS ARE NOT QUALITY
       CONTROLLED AND MAY MIS-REPORT RAIN FOR SNOW...
$$

  *****  WEATHER ACROSS NORTHERN MINNESOTA  *****

CITY           SKY/WX    TMP DP  RH WIND       PRES   REMARKS
FLAG ISLAND    FAIR      75  59  57 CALM      30.00F
WARROAD        FAIR      72  64  78 NE7       30.02S
ROSEAU         FAIR      75  63  64 E8        30.01S
HALLOCK        FAIR      75  63  64 S3        30.00S
THF RVR FALLS  FAIR      74  59  59 NE8       30.02R
HALSTAD          N/A     72  63  72 W7          N/A
FOSSTON        CLOUDY    73  63  68 N6        30.02F
BAUDETTE       FAIR      76  57  51 E6        30.00F
WASKISH        FAIR      77  57  50 SE3       30.00S
CROOKSTON      FAIR      73  63  68 CALM      30.01S
$$
  *****  WEATHER ACROSS CENTRAL AND WEST MINNESOTA  *****

CITY           SKY/WX    TMP DP  RH WIND       PRES   REMARKS
BEMIDJI        CLOUDY    69  58  66 NE8       30.02S
PARK RAPIDS    PTSUNNY   73  57  57 NE9       30.00S
WADENA         CLOUDY    72  57  60 N6        30.00S
DETROIT LAKES  CLOUDY    70  59  68 NE7       30.03S
MOORHEAD       PTSUNNY   72  61  68 NW7       30.02F
FERGUS FALLS   CLOUDY    70  61  73 NW12      30.01S
ELBOW LAKE     CLOUDY    69  60  73 NW8       30.02S
MORRIS MN      FAIR      73  59  60 NW12      30.01S
STAPLES        CLOUDY    72  57  60 N7        29.99S
WHEATON        CLOUDY    72  57  60 NW8       30.03F
$$
  *****  WEATHER ELSEWHERE ACROSS MINNESOTA  *****

CITY           SKY/WX    TMP DP  RH WIND       PRES   REMARKS
DULUTH         DRIZZLE   61  60  97 SE7       30.00R
INTRNTL FALLS  FAIR      76  54  46 NE6       30.00S
ELY            FAIR      72  50  46 NE10G16   29.98S
CLOQUET        CLOUDY    66  55  68 E6        29.99R
BRAINERD       CLOUDY    71  59  65 NE3       29.99S
HIBBING        CLOUDY    67  59  75 E6        30.00R
ALEXANDRIA     PTSUNNY   73  60  63 NW6       30.02S
SAINT CLOUD    CLOUDY    71  61  70 N9        29.96F
MINNEAPOLIS    CLOUDY    74  58  57 N13       29.94S
$$

  *****  WEATHER ACROSS SOUTH DAKOTA  *****

CITY           SKY/WX    TMP DP  RH WIND       PRES   REMARKS
SIOUX FALLS    FAIR      79  61  53 N15       30.01S
BROOKINGS      PTSUNNY   74  59  59 N12G18    30.02F
WATERTOWN      FAIR      74  59  59 N16       30.02F
HURON          FAIR      78  60  53 N10G18    30.03S
SISSETON         N/A     73  61  65 N14       30.01F
ABERDEEN       FAIR      79  60  52 N7        30.03F
MITCHELL       FAIR      80  59  48 N10G18    30.03F
PIERRE         FAIR      84  50  30 CALM      30.02F
MOBRIDGE       FAIR      81  59  47 VRB7      30.02F
RAPID CITY     FAIR      87  45  23 SE8G20    30.08F
$$

  *****  SOME WEATHER IN NEARBY STATES *****

CITY           SKY/WX    TMP DP  RH WIND       PRES   REMARKS
GLASGOW MT     FAIR      92  43  18 VRB6      29.92F
GREAT FALLS MT FAIR      90  39  16 W9        29.97F
CHEYENNE WY    PTSUNNY   88  42  20 S13G18    30.24F
SCOTTSBLUFF NE FAIR      91  55  29 E10       30.09F
OMAHA NE       FAIR      90  63  40 N10       29.94F HX  91
DES MOINES IA  FAIR      88  58  36 N15       29.91S
DAVENPORT IA   FAIR      86  69  56 W18G24    29.85F HX  90
CHICAGO IL     FAIR      89  62  40 W9        29.78F
EAU CLAIRE WI  FAIR      74  60  61 N13       29.90R
LA CROSSE WI   FAIR      83  64  52 NW14      29.85S
$$

  *****  SOME NATIONAL WEATHER *****

CITY           SKY/WX    TMP DP  RH WIND       PRES   REMARKS
LA GUARDIA NY  CLOUDY    77  70  79 NE5       29.82S
RALEIGH NC     FAIR     100  68  35 SW10      29.83F HX 105
ATLANTA GA     FAIR      90  70  51 VRB7      29.94F HX  95
NEW ORLEANS LA PTSUNNY   83  75  77 W12       29.99F HX  90
OKLAHOMA CITY  FAIR      95  69  42 E7        29.91F HX 100
ALBUQUERQUE NM PTSUNNY   82  56  40 SW12      30.18F
SALT LAKE CITY FAIR      93  49  22 VRB6      30.05F HX  90
LOS ANGELES CA FAIR      75  66  73 W12       29.90S
BOISE ID       FAIR      89  45  21 NW7       29.99F
SEATTLE WA     PTSUNNY   71  56  58 N8        30.10F
$$

*** WEATHER ACROSS MANITOBA...SASKATCHEWAN AND ONTARIO ***
                ***ONTARIO***

CITY           SKY/WX    TMP DP  RH WIND       PRES   REMARKS
GERALDTON      MOSUNNY   73  48  40 NE6       29.97F
THUNDER BAY    MOSUNNY   72  55  56 SE10      29.97R
SIOUX LOOKOUT  MOSUNNY   77  50  38 SW5       29.99F
TORONTO        PTSUNNY   75  63  64 E10       29.77S
BIG TROUT LK   SUNNY     75  43  31 SE6       29.97F
PICKLE LAKE    MOSUNNY   77  43  29 W6        29.98F
DRYDEN         SUNNY     77  48  36 CALM      30.00F
KENORA         PTSUNNY   75  54  46 NE7       30.02S
$$
                *** MANITOBA***

CITY           SKY/WX    TMP DP  RH WIND       PRES   REMARKS
BRANDON        MOSUNNY   75  55  50 S8        30.01F
DAUPHIN        MOSUNNY   77  57  50 W3        29.96F
ISLAND LAKE    PTSUNNY   77  57  50 VRB2      29.91F
PILOT MOUND      N/A     73  54  49 W2          N/A
THE PAS        PTSUNNY   75  57  53 SW10      29.88S
THOMPSON       CLOUDY    77  50  38 SW14      29.83F
WINNIPEG       MOSUNNY   75  61  60 NW5       29.99F
LYNN LAKE      TSTM      63  59  88 VRB6      29.77S FOG
CHURCHILL      PTSUNNY   82  54  36 SW16G24   29.68F
GILLAM         CLOUDY    79  46  31 SW12G20   29.82F
$$
                ***SASKATCHEWAN***

CITY           SKY/WX    TMP DP  RH WIND       PRES   REMARKS
ESTEVAN        MOSUNNY   81  57  44 SW12      29.99F
KINDERSLEY     MOSUNNY   84  52  32 VRB2      29.85F
LLOYDMINSTER   PTSUNNY   75  54  46 NE5       29.87F
PRINCE ALBERT  PTSUNNY   72  63  73 SW5       29.88S
REGINA         MOSUNNY   88  50  27 S13G21    29.92F
YORKTON        SUNNY     77  59  53 S9        29.96F



USA.gov is the U.S. government's official web portal to all federal, state and local government web resources and services.